FW5735 Antigonish CA current weather conditions

sailwx.info

Wind from 213 at 0 knots gusting 5

Air temperature 19.4° C
Dewpoint 16.5° C

Last reported at 2020-May-29 04:05 UTC.
Time now 2020-May-29 04:18 UTC

Location: N 45°37' W 061°59'.
View on Google Maps.

See reports from other nearby stations

  
Tides and Currents Weather Stations Pressure Air Temp Water Temp Dewpoint Dewpoint Depression Visibility Wind Speed Wind Dir Waves Ship Positions
date/time (UTC)wind fromknots sea level pressurealtimeterstation pressurevisibilityair tempwater tempwave heightnotes
2020-May-29 04:05 213 0 gusting 5 19.4
2020-May-29 04:00 216 1 gusting 5 19.4
2020-May-29 03:55 206 1 gusting 6 19.4
2020-May-29 03:50 237 2 gusting 5 19.4
2020-May-29 03:45 267 2 gusting 6 19.4
2020-May-29 03:40 238 1 gusting 4 19.4
2020-May-29 03:35 242 0 gusting 4 19.4
2020-May-29 03:25 211 1 gusting 4 20.0
2020-May-29 03:21 228 1 gusting 4 20.0
2020-May-29 03:20 238 1 gusting 4 20.0
2020-May-29 03:05 220 3 gusting 7 20.0
2020-May-29 03:01 253 2 gusting 6 20.0
2020-May-29 02:56 244 2 gusting 6 20.0
2020-May-29 02:50 251 1 gusting 6 20.0
2020-May-29 02:46 236 1 gusting 5 20.0
2020-May-29 02:40 222 3 gusting 6 20.0
2020-May-29 02:34 252 1 gusting 5 20.0
2020-May-29 02:25 234 1 gusting 4 20.6
2020-May-29 02:20 246 2 gusting 4 20.6
2020-May-29 02:16 229 1 gusting 4 20.6
2020-May-29 02:10 238 1 gusting 5 20.6
2020-May-29 02:05 246 1 gusting 5 20.6
2020-May-29 02:01 226 21.1
2020-May-29 01:55 235 1 gusting 4 21.1
2020-May-29 01:50 209 1 gusting 4 21.1
2020-May-29 01:47 248 1 gusting 5 21.7
2020-May-29 01:41 227 2 gusting 5 21.7
2020-May-29 01:35 226 1 gusting 5 21.7
2020-May-29 01:31 231 2 gusting 5 21.7
2020-May-29 01:25 205 1 gusting 4 22.2
2020-May-29 01:21 207 1 gusting 6 22.2
2020-May-29 01:17 220 3 gusting 6 22.8
2020-May-29 01:10 219 2 gusting 6 22.8
2020-May-29 01:05 228 3 gusting 8 22.8
2020-May-29 01:02 209 3 gusting 8 22.8
2020-May-29 00:55 222 2 gusting 5 22.8
2020-May-29 00:50 234 1 gusting 3 22.8
2020-May-29 00:47 240 1 gusting 3 23.3
2020-May-29 00:40 239 1 gusting 3 23.3
2020-May-29 00:36 240 0 gusting 4 23.3
2020-May-29 00:31 239 0 gusting 6 23.3
2020-May-29 00:25 241 2 gusting 6 23.9
2020-May-29 00:20 248 1 gusting 6 23.9
2020-May-29 00:16 242 2 gusting 6 23.9
2020-May-29 00:10 249 3 gusting 6 23.9
2020-May-29 00:05 243 2 gusting 6 24.4
2020-May-29 00:01 261 4 gusting 7 24.4
2020-May-28 23:55 270 4 gusting 8 25.0
2020-May-28 23:50 252 5 gusting 10 25.0
2020-May-28 23:46 261 4 gusting 10 25.0
2020-May-28 23:40 285 4 gusting 9 25.0
2020-May-28 23:36 270 5 gusting 9 25.6
2020-May-28 23:30 252 6 gusting 8 25.6
2020-May-28 23:26 251 4 gusting 11 25.6
2020-May-28 23:20 259 6 gusting 11 26.1
2020-May-28 23:16 246 4 gusting 11 26.1
2020-May-28 23:10 271 5 gusting 11 26.1
2020-May-28 23:05 271 6 gusting 13 26.7
2020-May-28 23:01 275 8 gusting 13 26.7
2020-May-28 22:55 276 6 gusting 13 26.7
2020-May-28 22:50 269 7 gusting 13 27.2
2020-May-28 22:46 272 7 gusting 12 27.2
2020-May-28 22:40 270 5 gusting 14 27.8
2020-May-28 22:35 266 8 gusting 15 28.3
2020-May-28 22:31 264 8 gusting 15 28.3
2020-May-28 22:25 269 9 gusting 13 28.3
2020-May-28 22:20 220 6 gusting 13 28.3
2020-May-28 22:16 237 8 gusting 14 28.9
2020-May-28 22:10 240 8 gusting 16 28.9
2020-May-28 22:05 220 7 gusting 16 29.4
2020-May-28 22:01 253 11 gusting 16 29.4
2020-May-28 21:55 224 8 gusting 13 29.4
2020-May-28 21:50 259 8 gusting 17 29.4
2020-May-28 21:48 237 8 gusting 17 29.4
2020-May-28 21:40 246 8 gusting 15 30.0
2020-May-28 21:35 272 8 gusting 15 30.0
2020-May-28 21:31 257 8 gusting 13 29.4
2020-May-28 21:25 285 7 gusting 13 29.4
2020-May-28 21:20 263 6 gusting 13 29.4
2020-May-28 21:16 243 8 gusting 18 29.4
2020-May-28 21:10 227 9 gusting 18 30.0
2020-May-28 21:05 266 9 gusting 17 30.0
2020-May-28 21:01 255 13 gusting 17 30.0
2020-May-28 20:55 256 11 gusting 18 30.0
2020-May-28 20:50 228 12 gusting 19 30.0
2020-May-28 20:45 243 12 gusting 19 30.6
2020-May-28 20:41 271 11 gusting 18 30.6
2020-May-28 20:35 242 12 gusting 17 30.6
2020-May-28 20:30 265 8 gusting 13 30.0
2020-May-28 20:25 245 7 gusting 13 30.0
2020-May-28 20:20 277 7 gusting 13 29.4
2020-May-28 20:15 283 7 gusting 14 29.4
2020-May-28 20:10 237 7 gusting 15 29.4
2020-May-28 20:05 262 8 gusting 15 28.9
2020-May-28 20:00 240 8 gusting 14 28.9
2020-May-28 19:55 261 11 gusting 14 28.3
2020-May-28 19:50 277 11 gusting 14 28.3
2020-May-28 19:45 269 6 gusting 15 28.9
2020-May-28 19:40 257 9 gusting 15 28.3
2020-May-28 19:35 259 9 gusting 17 28.9
2020-May-28 19:30 250 7 gusting 18 28.9
2020-May-28 19:25 250 10 gusting 18 28.9
2020-May-28 19:20 279 10 gusting 18 29.4
2020-May-28 19:16 245 8 gusting 17 29.4
2020-May-28 19:05 230 13 gusting 22 29.4
2020-May-28 19:00 280 10 gusting 18 29.4
2020-May-28 18:55 260 10 gusting 16 29.4
2020-May-28 18:50 292 9 gusting 16 29.4
2020-May-28 18:47 242 10 gusting 16 29.4
2020-May-28 18:40 244 4 gusting 16 28.9
2020-May-28 18:35 262 9 gusting 16 28.9
2020-May-28 18:31 232 10 gusting 16 29.4
2020-May-28 18:25 243 9 gusting 18 28.9
2020-May-28 18:20 279 10 gusting 18 28.9
2020-May-28 18:16 233 7 gusting 15 28.3
2020-May-28 18:10 297 9 gusting 18 28.3
2020-May-28 18:05 270 11 gusting 20 28.3
2020-May-28 18:00 277 11 gusting 20 28.9
2020-May-28 17:55 232 13 gusting 21 28.9
2020-May-28 17:50 238 8 gusting 18 28.9
2020-May-28 17:45 261 12 gusting 18 28.9
2020-May-28 17:40 266 9 gusting 19 29.4
2020-May-28 17:35 277 13 gusting 19 28.9
2020-May-28 17:30 241 11 gusting 17 29.4
2020-May-28 17:25 242 10 gusting 17 30.0
2020-May-28 17:15 258 10 gusting 26 30.0
2020-May-28 17:10 273 14 gusting 26 30.0
2020-May-28 17:00 266 10 gusting 18 30.0
2020-May-28 16:55 265 7 gusting 13 30.0
2020-May-28 16:50 264 8 gusting 18 30.0
2020-May-28 16:40 219 10 gusting 19 29.4
2020-May-28 16:35 259 11 gusting 17 29.4
2020-May-28 16:30 260 10 gusting 17 29.4
2020-May-28 16:25 273 12 gusting 17 29.4
2020-May-28 16:20 269 10 gusting 16 28.9
2020-May-28 16:10 232 9 gusting 16 29.4
2020-May-28 16:05 259 10 gusting 16 29.4
2020-May-28 15:55 288 10 gusting 18 29.4
2020-May-28 15:50 238 8 gusting 15 29.4
2020-May-28 15:40 252 6 gusting 17 29.4
2020-May-28 15:35 250 8 gusting 17 28.9
2020-May-28 15:30 270 9 gusting 19 28.9
2020-May-28 15:25 247 11 gusting 19 28.9
2020-May-28 15:20 269 11 gusting 18 28.9
2020-May-28 15:15 253 12 gusting 18 28.9
2020-May-28 15:10 252 13 gusting 18 28.9
2020-May-28 15:05 323 9 gusting 17 28.9
2020-May-28 15:00 246 7 gusting 14 28.3
2020-May-28 14:55 196 5 gusting 14 28.9
2020-May-28 14:48 256 6 gusting 15 28.3
2020-May-28 14:40 273 7 gusting 18 28.3
2020-May-28 14:36 253 12 gusting 18 27.8
2020-May-28 14:31 253 6 gusting 13 27.8
2020-May-28 14:25 233 5 gusting 13 27.2
2020-May-28 14:20 202 5 gusting 13 27.2
2020-May-28 14:16 233 8 gusting 13 27.2
2020-May-28 14:10 260 8 gusting 14 27.2
2020-May-28 14:05 240 9 gusting 17 26.7
2020-May-28 14:01 263 10 gusting 17 26.7
2020-May-28 13:55 228 11 gusting 15 27.2
2020-May-28 13:50 262 8 gusting 19 26.7
2020-May-28 13:46 245 11 gusting 19 26.7
2020-May-28 13:40 263 6 gusting 13 26.7
2020-May-28 13:35 268 8 gusting 16 26.7
2020-May-28 13:32 225 7 gusting 16 26.1
2020-May-28 13:25 229 8 gusting 15 26.1
2020-May-28 13:20 232 8 gusting 15 26.1
2020-May-28 13:16 265 8 gusting 13 26.1
2020-May-28 13:10 268 9 gusting 16 25.6
2020-May-28 13:05 273 8 gusting 16 26.1
2020-May-28 13:02 259 6 gusting 13 26.1
2020-May-28 12:55 233 7 gusting 13 25.6
2020-May-28 12:50 218 6 gusting 13 25.6
2020-May-28 12:46 255 6 gusting 13 25.0
2020-May-28 12:40 244 6 gusting 13 24.4
2020-May-28 12:35 240 6 gusting 10 24.4
2020-May-28 12:31 207 6 gusting 12 24.4
2020-May-28 12:25 250 5 gusting 12 23.9
2020-May-28 12:20 236 6 gusting 12 23.9
2020-May-28 12:16 248 7 gusting 12 23.3
2020-May-28 12:10 227 6 gusting 11 23.3
2020-May-28 12:05 248 6 gusting 11 22.8
2020-May-28 12:00 227 4 gusting 10 22.2
2020-May-28 11:55 248 6 gusting 10 21.7
2020-May-28 11:50 231 6 gusting 12 21.1
2020-May-28 11:45 225 6 gusting 11 20.6
2020-May-28 11:40 226 5 gusting 9 20.6
2020-May-28 11:35 217 6 gusting 12 20.6
2020-May-28 11:25 191 6 gusting 8 20.6
2020-May-28 11:15 254 5 gusting 12 20.6
2020-May-28 11:10 245 6 gusting 12 20.6
2020-May-28 11:05 221 6 gusting 10 20.6
2020-May-28 10:55 261 6 gusting 12 20.6
2020-May-28 10:45 247 8 gusting 15 20.6
2020-May-28 10:40 250 7 gusting 13 20.0
2020-May-28 10:35 250 7 gusting 13 20.0
2020-May-28 10:30 256 7 gusting 13 20.0
2020-May-28 10:25 238 6 gusting 11 20.0
2020-May-28 10:20 234 6 gusting 11 19.4
2020-May-28 10:15 218 5 gusting 9 19.4
2020-May-28 10:10 213 5 gusting 9 19.4
2020-May-28 10:05 236 5 gusting 9 19.4
2020-May-28 10:00 228 4 gusting 8 18.9
2020-May-28 09:55 229 4 gusting 7 18.9
2020-May-28 09:50 220 3 gusting 7 18.9
2020-May-28 09:45 232 3 gusting 6 18.9
2020-May-28 09:40 231 4 gusting 7 18.9
2020-May-28 09:30 215 3 gusting 7 18.3
2020-May-28 09:25 213 4 gusting 7 18.3
2020-May-28 09:20 230 5 gusting 10 18.3
2020-May-28 09:15 224 5 gusting 8 18.3
2020-May-28 09:02 229 5 gusting 8 18.3
2020-May-28 08:56 235 5 gusting 9 18.3
2020-May-28 08:50 219 5 gusting 8 17.8
2020-May-28 08:46 219 4 gusting 7 17.8
2020-May-28 08:41 224 4 gusting 7 17.8
2020-May-28 08:36 234 3 gusting 9 17.8
2020-May-28 08:31 219 5 gusting 9 17.8
2020-May-28 08:26 221 4 gusting 10 17.8
2020-May-28 08:20 219 5 gusting 10 17.2
2020-May-28 08:16 229 3 gusting 7 17.2
2020-May-28 08:11 230 3 gusting 7 16.7
2020-May-28 08:06 229 2 gusting 6 16.7
2020-May-28 08:02 204 2 gusting 6 16.1
2020-May-28 07:55 235 2 gusting 6 16.1
2020-May-28 07:50 227 3 gusting 6 15.0
2020-May-28 07:46 240 1 gusting 3 14.4
2020-May-28 07:40 260 1 gusting 3 13.3
2020-May-28 07:35 106 13.3
2020-May-28 07:30 106 12.8
2020-May-28 07:25 106 12.8
2020-May-28 07:21 106 12.8
2020-May-28 07:15 106 12.8
2020-May-28 07:10 106 12.8
2020-May-28 07:06 106 12.8
2020-May-28 07:01 106 12.8
2020-May-28 06:55 106 12.8
2020-May-28 06:50 106 12.8
2020-May-28 06:45 106 12.8
2020-May-28 06:40 106 12.8
2020-May-28 06:35 106 12.8
2020-May-28 06:31 106 12.8
2020-May-28 06:25 106 12.8
2020-May-28 06:20 106 12.8
2020-May-28 06:16 106 12.8
2020-May-28 06:10 106 12.8
2020-May-28 06:05 106 0 gusting 1 12.8
2020-May-28 06:02 106 0 gusting 1 12.8
2020-May-28 05:55 106 0 gusting 1 12.8
2020-May-28 05:50 106 0 gusting 1 12.8
2020-May-28 05:45 106 12.8
2020-May-28 05:40 106 12.8
2020-May-28 05:35 106 12.8
2020-May-28 05:30 106 12.8
2020-May-28 05:25 106 12.8
2020-May-28 05:20 106 12.8
2020-May-28 05:16 106 12.8
2020-May-28 05:10 106 12.8
2020-May-28 05:05 106 12.8
2020-May-28 05:00 106 12.8
2020-May-28 04:55 106 13.3
2020-May-28 04:50 106 13.3
2020-May-28 04:46 106 13.3
2020-May-28 04:40 106 13.3
2020-May-28 04:35 106 13.3
2020-May-28 04:30 106 13.3
2020-May-28 04:25 106 0 gusting 1 13.3
2020-May-28 04:20 106 0 gusting 1 13.3
2020-May-28 04:15 106 0 gusting 1 13.3
2020-May-28 04:10 106 13.3
2020-May-28 04:05 106 13.3
2020-May-28 04:00 106 0 gusting 1 13.3
2020-May-28 03:55 106 13.9
2020-May-28 03:50 106 13.9
2020-May-28 03:46 106 13.9
2020-May-28 03:40 106 13.9
2020-May-28 03:30 106 13.9
2020-May-28 03:25 106 13.9
2020-May-28 03:20 106 13.9
2020-May-28 03:10 106 13.9
2020-May-28 03:05 106 13.9
2020-May-28 03:00 106 13.9
2020-May-28 02:55 106 13.9
2020-May-28 02:45 106 0 gusting 1 14.4
2020-May-28 02:40 106 14.4
2020-May-28 02:30 106 14.4
2020-May-28 02:25 106 14.4
2020-May-28 02:20 106 14.4
2020-May-28 02:15 106 14.4
2020-May-28 02:10 106 15.0
2020-May-28 02:05 106 15.0
2020-May-28 01:55 106 15.0
2020-May-28 01:50 106 15.0
2020-May-28 01:45 106 15.0
2020-May-28 01:35 106 15.0
2020-May-28 01:30 106 15.0
2020-May-28 01:25 106 15.0
2020-May-28 01:20 106 15.0
2020-May-28 01:15 106 15.0
2020-May-28 01:10 106 15.6
2020-May-28 01:05 106 15.6
2020-May-28 01:00 106 15.6
2020-May-28 00:55 106 15.6
2020-May-28 00:50 106 15.6
2020-May-28 00:45 106 15.6
2020-May-28 00:40 106 15.6
2020-May-28 00:35 106 15.6
2020-May-28 00:25 084 15.6
2020-May-28 00:21 084 16.1
2020-May-28 00:17 084 16.1
2020-May-28 00:11 084 16.1
2020-May-28 00:06 084 16.1
2020-May-28 00:01 084 16.1
2020-May-27 23:55 084 16.1
2020-May-27 23:51 084 0 gusting 2 16.1
2020-May-27 23:47 130 0 gusting 2 16.7
2020-May-27 23:41 126 0 gusting 2 16.7
2020-May-27 23:36 109 0 gusting 5 16.7
2020-May-27 23:32 074 0 gusting 5 17.2
2020-May-27 23:25 070 1 gusting 5 17.2
2020-May-27 23:20 065 0 gusting 3 17.2
2020-May-27 23:16 076 0 gusting 4 17.2
2020-May-27 23:11 076 1 gusting 4 17.8
2020-May-27 23:05 058 0 gusting 6 17.8
2020-May-27 23:00 090 0 gusting 7 17.8
2020-May-27 22:55 056 1 gusting 7 17.8
2020-May-27 22:50 080 2 gusting 6 18.3
2020-May-27 22:46 084 2 gusting 6 18.3
2020-May-27 22:40 107 1 gusting 7 18.9
2020-May-27 22:36 173 1 gusting 7 18.9
2020-May-27 22:32 052 1 gusting 6 19.4
2020-May-27 22:25 116 1 gusting 6 19.4
2020-May-27 22:21 067 2 gusting 6 19.4
2020-May-27 22:16 063 1 gusting 5 20.0
2020-May-27 22:10 065 0 gusting 5 20.0
2020-May-27 22:05 074 1 gusting 5 20.0
2020-May-27 22:01 079 1 gusting 5 20.0
2020-May-27 21:55 067 1 gusting 6 20.0
2020-May-27 21:50 111 2 gusting 6 20.0
2020-May-27 21:46 045 1 gusting 5 20.0
2020-May-27 21:40 071 1 gusting 5 19.4
2020-May-27 21:35 058 0 gusting 4 19.4
2020-May-27 21:31 098 19.4
2020-May-27 21:25 059 1 gusting 6 19.4
2020-May-27 21:20 061 1 gusting 5 19.4
2020-May-27 21:16 053 0 gusting 4 19.4
2020-May-27 21:10 094 18.9
2020-May-27 21:05 061 1 gusting 6 18.9
2020-May-27 21:03 092 0 gusting 2 18.9
2020-May-27 20:55 105 0 gusting 5 18.9
2020-May-27 20:51 113 0 gusting 6 18.9
2020-May-27 20:46 079 0 gusting 6 18.9
2020-May-27 20:40 074 1 gusting 5 18.9
2020-May-27 20:35 080 0 gusting 6 18.9
2020-May-27 20:30 090 1 gusting 6 18.9
2020-May-27 20:25 118 0 gusting 6 18.9
2020-May-27 20:20 038 1 gusting 6 18.9
2020-May-27 20:15 080 18.9
2020-May-27 20:10 068 2 gusting 6 18.9
2020-May-27 20:05 030 0 gusting 6 18.9
2020-May-27 20:01 074 3 gusting 6 18.9
2020-May-27 19:55 090 2 gusting 7 18.9
2020-May-27 19:50 076 3 gusting 7 18.9
2020-May-27 19:47 165 2 gusting 7 18.9
2020-May-27 19:40 042 3 gusting 7 18.9
2020-May-27 19:35 088 2 gusting 6 18.9
2020-May-27 19:25 101 2 gusting 7 18.9
2020-May-27 19:20 135 1 gusting 8 18.9
2020-May-27 19:16 084 3 gusting 9 18.9
2020-May-27 19:10 078 4 gusting 9 18.9
2020-May-27 19:05 044 2 gusting 8 18.9
2020-May-27 19:01 240 2 gusting 8 18.9
2020-May-27 18:55 072 1 gusting 8 18.9
2020-May-27 18:50 083 1 gusting 10 18.9
2020-May-27 18:45 097 5 gusting 10 19.4
2020-May-27 18:40 077 6 gusting 10 19.4
2020-May-27 18:36 060 4 gusting 11 19.4
2020-May-27 18:30 124 5 gusting 9 19.4
2020-May-27 18:25 049 4 gusting 10 19.4
2020-May-27 18:20 091 4 gusting 10 19.4
2020-May-27 18:15 014 5 gusting 9 19.4
2020-May-27 18:10 058 3 gusting 8 19.4
2020-May-27 18:05 084 2 gusting 9 20.0
2020-May-27 18:00 090 3 gusting 9 20.0
2020-May-27 17:55 074 5 gusting 10 20.0
2020-May-27 17:50 073 2 gusting 7 20.0
2020-May-27 17:45 070 2 gusting 9 20.0
2020-May-27 17:40 078 3 gusting 9 20.0
2020-May-27 17:35 065 0 gusting 8 20.0
2020-May-27 17:31 084 4 gusting 8 20.0
2020-May-27 17:25 069 0 gusting 5 20.0
2020-May-27 17:20 059 0 gusting 5 20.0
2020-May-27 17:16 131 0 gusting 6 20.6
2020-May-27 17:10 093 1 gusting 6 20.6
2020-May-27 17:05 056 0 gusting 4 20.6
2020-May-27 17:00 075 1 gusting 6 20.6
2020-May-27 16:55 107 2 gusting 6 21.1
2020-May-27 16:50 134 1 gusting 5 21.1
2020-May-27 16:45 076 0 gusting 4 20.6
2020-May-27 16:40 064 2 gusting 4 20.6
2020-May-27 16:35 064 0 gusting 5 20.6
2020-May-27 16:31 065 0 gusting 5 20.0
2020-May-27 16:25 107 1 gusting 6 20.6
2020-May-27 16:20 123 0 gusting 7 20.6
2020-May-27 16:16 108 1 gusting 6 20.6
2020-May-27 16:10 325 20.6
2020-May-27 16:05 298 1 gusting 6 20.6
2020-May-27 16:00 306 1 gusting 7 20.6
2020-May-27 15:55 283 0 gusting 7 20.6
2020-May-27 15:51 291 1 gusting 6 20.6
2020-May-27 15:45 304 1 gusting 6 20.6
2020-May-27 15:40 325 1 gusting 6 20.6
2020-May-27 15:35 273 1 gusting 6 20.6
2020-May-27 15:31 298 2 gusting 6 20.6
2020-May-27 15:25 265 3 gusting 8 20.6
2020-May-27 15:20 278 3 gusting 8 20.6
2020-May-27 15:15 276 1 gusting 6 20.6
2020-May-27 15:10 274 2 gusting 5 20.0
2020-May-27 15:05 284 0 gusting 4 20.0
2020-May-27 15:01 285 0 gusting 5 20.0
2020-May-27 14:55 277 1 gusting 5 20.6
2020-May-27 14:50 306 1 gusting 3 20.6
2020-May-27 14:46 246 0 gusting 2 20.6
2020-May-27 14:40 246 0 gusting 2 20.6
2020-May-27 14:35 246 0 gusting 2 20.6
2020-May-27 14:30 246 0 gusting 2 20.6
2020-May-27 14:25 246 20.6
2020-May-27 14:20 246 20.6
2020-May-27 14:15 246 20.6
2020-May-27 14:10 246 2 gusting 3 20.6
2020-May-27 14:05 267 1 gusting 4 20.6
2020-May-27 14:00 280 2 gusting 4 20.6
2020-May-27 13:55 268 1 gusting 3 20.6
2020-May-27 13:50 247 1 gusting 5 20.6
2020-May-27 13:45 229 2 gusting 5 20.0
2020-May-27 13:40 220 1 gusting 6 20.0
2020-May-27 13:35 217 3 gusting 6 20.0
2020-May-27 13:25 237 1 gusting 4 20.0
2020-May-27 13:15 215 1 gusting 4 20.0
2020-May-27 13:10 269 1 gusting 6 20.0
2020-May-27 13:05 274 1 gusting 4 20.0
2020-May-27 13:00 248 2 gusting 4 20.0
2020-May-27 12:55 249 1 gusting 7 20.0
2020-May-27 12:45 236 3 gusting 7 20.0
2020-May-27 12:40 264 3 gusting 6 20.0
2020-May-27 12:35 210 2 gusting 7 20.0
2020-May-27 12:25 248 4 gusting 8 20.0
2020-May-27 12:20 263 3 gusting 6 20.0
2020-May-27 12:10 234 2 gusting 6 20.0
2020-May-27 12:05 261 1 gusting 5 19.4
2020-May-27 11:55 225 1 gusting 4 19.4
2020-May-27 11:50 251 1 gusting 6 19.4
2020-May-27 11:40 240 1 gusting 4 19.4
2020-May-27 11:35 222 2 gusting 6 19.4
2020-May-27 11:25 217 1 gusting 8 19.4
2020-May-27 11:20 177 5 gusting 8 19.4
2020-May-27 11:15 229 1 gusting 6 18.9
2020-May-27 11:10 248 3 gusting 8 18.9
2020-May-27 11:05 232 2 gusting 8 18.9
2020-May-27 10:55 217 2 gusting 6 18.9
2020-May-27 10:50 207 3 gusting 10 18.9
2020-May-27 10:45 232 1 gusting 6 18.9
2020-May-27 10:35 260 18.9
2020-May-27 10:30 250 1 gusting 5 18.9
2020-May-27 10:25 222 1 gusting 5 18.9
2020-May-27 10:20 226 18.9
2020-May-27 10:15 243 3 gusting 8 18.9
2020-May-27 10:10 227 3 gusting 7 18.9
2020-May-27 10:05 248 2 gusting 13 18.9
2020-May-27 10:00 223 4 gusting 13 18.9
2020-May-27 09:55 212 4 gusting 9 18.9
2020-May-27 09:50 212 2 gusting 6 18.9
2020-May-27 09:45 244 3 gusting 6 18.9
2020-May-27 09:40 241 3 gusting 6 18.9
2020-May-27 09:35 355 18.9
2020-May-27 09:30 213 3 gusting 8 18.9
2020-May-27 09:25 229 3 gusting 7 18.9
2020-May-27 09:20 243 1 gusting 7 18.9
2020-May-27 09:15 261 4 gusting 7 18.9
2020-May-27 09:10 284 2 gusting 6 18.9
2020-May-27 09:05 229 2 gusting 6 18.9
2020-May-27 09:00 210 2 gusting 8 18.9
2020-May-27 08:46 218 4 gusting 8 18.9
2020-May-27 08:40 185 3 gusting 8 18.9
2020-May-27 08:36 204 3 gusting 9 18.9
2020-May-27 08:32 217 3 gusting 9 18.9
2020-May-27 08:25 227 4 gusting 10 18.9
2020-May-27 08:21 228 3 gusting 6 18.3
2020-May-27 08:17 241 2 gusting 6 18.3
2020-May-27 08:10 215 2 gusting 7 18.9
2020-May-27 08:05 208 2 gusting 7 18.9
2020-May-27 08:01 221 3 gusting 6 18.9
2020-May-27 07:55 202 3 gusting 6 18.9
2020-May-27 07:50 198 3 gusting 6 18.9
2020-May-27 07:47 209 2 gusting 9 18.9
2020-May-27 07:40 229 4 gusting 9 18.9
2020-May-27 07:35 179 4 gusting 8 18.9
2020-May-27 07:33 230 2 gusting 6 18.9
2020-May-27 07:25 219 3 gusting 8 18.9
2020-May-27 07:21 220 5 gusting 8 18.9
2020-May-27 07:17 229 4 gusting 8 18.9
2020-May-27 07:10 205 2 gusting 9 18.9
2020-May-27 07:05 222 3 gusting 9 18.9
2020-May-27 07:02 219 3 gusting 7 18.9
2020-May-27 06:55 240 2 gusting 7 18.9
2020-May-27 06:51 240 3 gusting 7 18.9
2020-May-27 06:46 246 2 gusting 7 18.9
2020-May-27 06:41 194 3 gusting 11 18.9
2020-May-27 06:35 215 3 gusting 11 18.3
2020-May-27 06:31 237 2 gusting 8 18.3
2020-May-27 06:25 224 5 gusting 7 18.3
2020-May-27 06:20 236 4 gusting 7 18.3
2020-May-27 06:16 259 4 gusting 8 18.3
2020-May-27 06:10 232 4 gusting 8 18.3
2020-May-27 06:06 211 4 gusting 6 18.3
2020-May-27 06:01 231 3 gusting 10 18.3
2020-May-27 05:56 221 5 gusting 10 18.3
2020-May-27 05:50 229 5 gusting 7 18.3
2020-May-27 05:47 235 3 gusting 7 17.8
2020-May-27 05:40 232 4 gusting 6 17.8
2020-May-27 05:35 225 3 gusting 8 17.8
2020-May-27 05:32 210 3 gusting 7 17.8
2020-May-27 05:25 224 3 gusting 6 17.8
2020-May-27 05:20 217 3 gusting 6 17.8
2020-May-27 05:15 224 3 gusting 6 17.8
2020-May-27 05:10 215 2 gusting 5 17.8
2020-May-27 05:05 234 2 gusting 5 17.8
2020-May-27 05:01 240 1 gusting 5 17.8
2020-May-27 04:55 247 0 gusting 4 17.8
2020-May-27 04:50 223 1 gusting 3 17.8
2020-May-27 04:46 220 1 gusting 4 17.8
2020-May-27 04:40 227 1 gusting 6 17.8
2020-May-27 04:35 242 1 gusting 6 17.8
2020-May-27 04:31 209 1 gusting 6 17.8
2020-May-27 04:25 197 1 gusting 6 17.8
2020-May-27 04:20 217 2 gusting 5 17.8
2020-May-27 04:16 218 2 gusting 6 17.8
2020-May-27 04:10 229 2 gusting 6 17.8
2020-May-27 04:05 232 1 gusting 6 17.8
2020-May-27 04:01 235 2 gusting 6 17.8